Temp
35 33 34 33 31 31 30 30 30 29 30 31 31 31 30 29 30 29 30 29 30 30
34 34 33 33 32 30 30 33 28 29 29 30 30 30 29 28 28 28 29 29 29 28
34 34 32 32 30 30 28 29 28 28 28 29 29 29 28 27 28 28 28 29 28 29
34 33 32 31 30 29 29 29 28 28 29 28 27 27 26 27 27 27 27 28 28 29
34 33 31 30 30 30 28 30 28 29 29 29 28 27 26 26 26 26 26 27 28 28
33 31 30 30 30 29 28 27 28 28 28 27 27 27 27 26 26 26 26 26 26 27
31 30 29 29 28 28 28 27 27 27 28 28 27 27 27 27 26 25 26 27 27 27
29 29 28 27 27 27 27 26 26 27 27 28 28 28 25 26 25 25 24 25 26 27
29 27 24 24 23 24 23 22 21 23 25 25 29 30 28 24 22 22 21 21 22 25
23 22 19 23 22 18 15 19 18 12 17 15 16 29 28 24 17 15 13 14 16 21
23 19 20 17 14 13 10 7 8 12 14 18 22 29 27 24 8 10 12 14 14 12
22 21 20 17 15 13 10 10 7 3 12 14 15 29 27 16 9 10 12 13 17 15
23 22 20 18 15 9 7 6 8 11 7 19 11 28 26 16 10 14 13 15 14 24
26 24 21 18 16 12 9 8 4 6 5 8 15 21 26 24 15 11 10 10 11 13
MSLP
1023.80 1024.25 1024.39 1024.58 1025.05 1024.97 1025.54 1025.53 1025.58 1025.58 1025.36 1024.95 1025.23 1024.40 1024.11 1024.12 1024.50 1024.59 1024.26 1023.56 1023.43 1022.88
1024.09 1024.61 1025.18 1024.96 1025.47 1025.40 1025.52 1025.59 1026.42 1026.06 1026.00 1025.06 1025.21 1025.01 1024.96 1024.78 1024.31 1025.09 1024.74 1024.46 1024.18 1023.41
1024.35 1025.18 1025.02 1025.19 1025.71 1025.81 1025.92 1025.84 1026.80 1026.55 1025.97 1025.83 1025.42 1025.25 1025.20 1025.10 1025.41 1025.19 1025.22 1024.90 1024.55 1024.00
1024.60 1025.24 1025.47 1026.05 1025.95 1026.00 1026.38 1026.37 1026.71 1026.25 1026.22 1026.68 1025.90 1025.59 1025.76 1025.56 1025.71 1026.12 1025.58 1025.25 1025.04 1024.30
1024.35 1025.46 1025.60 1026.12 1026.12 1026.29 1026.47 1026.76 1026.86 1026.48 1026.36 1026.57 1026.22 1026.31 1026.25 1026.22 1026.48 1026.37 1025.93 1025.54 1025.47 1024.93
1024.62 1025.55 1026.01 1026.36 1026.56 1026.64 1026.56 1026.90 1027.12 1027.00 1026.81 1026.58 1026.41 1026.48 1026.79 1026.68 1026.70 1026.53 1026.51 1026.06 1026.00 1025.42
1024.93 1025.73 1026.28 1026.40 1026.75 1026.72 1026.92 1027.26 1027.29 1027.16 1026.93 1027.08 1026.93 1026.78 1026.93 1026.88 1026.82 1026.87 1027.02 1026.60 1026.22 1025.71
1025.28 1025.95 1026.66 1026.56 1026.81 1026.93 1027.30 1027.80 1027.58 1027.35 1027.31 1027.14 1027.13 1026.98 1027.16 1027.26 1027.34 1027.53 1027.67 1027.08 1026.68 1025.99
1025.59 1026.18 1026.80 1026.96 1027.28 1027.64 1028.03 1028.20 1028.30 1028.24 1027.97 1027.62 1027.32 1027.16 1027.20 1027.81 1028.30 1028.40 1028.26 1027.80 1027.19 1026.57
1025.81 1026.74 1027.08 1027.40 1027.63 1028.23 1028.72 1028.98 1029.15 1028.93 1028.53 1028.15 1027.96 1027.39 1027.67 1028.42 1029.02 1029.10 1028.82 1028.38 1027.73 1027.35
1026.08 1026.93 1027.30 1027.84 1028.32 1028.92 1029.33 1029.62 1029.68 1029.52 1029.02 1028.64 1028.21 1027.81 1028.22 1028.74 1029.76 1029.52 1029.28 1028.84 1028.34 1027.87
1026.06 1026.75 1027.41 1028.23 1028.78 1029.24 1029.57 1029.87 1029.99 1029.87 1029.60 1029.39 1028.99 1028.13 1028.57 1029.48 1030.00 1029.93 1029.65 1029.33 1028.71 1028.28
1025.95 1026.59 1027.40 1028.19 1028.84 1029.43 1029.78 1030.10 1030.13 1030.16 1030.09 1029.91 1029.49 1028.48 1028.91 1029.85 1030.29 1030.30 1030.19 1029.76 1029.38 1028.21
1025.77 1026.54 1027.29 1028.13 1028.91 1029.55 1030.02 1030.31 1030.50 1030.51 1030.46 1030.38 1029.76 1029.39 1029.19 1029.76 1030.41 1030.64 1030.80 1030.73 1030.43 1029.83
Wind_Speed
7 5 4 5 3 4 3 4 5 5 4 6 7 8 7 6 6 8 6 8 7 5
6 5 4 6 5 4 4 4 5 5 4 6 5 6 7 5 8 6 7 7 7 5
6 4 5 6 5 5 5 5 4 4 5 6 6 6 5 7 6 7 6 6 8 7
7 6 6 5 5 5 5 4 3 5 5 5 6 7 7 6 8 6 6 7 8 9
9 7 7 6 5 5 6 5 4 4 5 5 7 7 8 8 6 7 8 8 9 10
9 7 6 6 6 5 5 4 4 4 6 6 7 6 5 6 7 7 7 8 8 9
8 7 6 6 5 6 5 4 3 4 4 6 6 7 6 8 8 8 8 8 8 9
8 7 6 6 6 6 6 4 4 5 5 4 6 7 7 8 9 8 8 9 9 9
8 7 5 7 6 6 6 6 6 5 5 5 6 13 15 10 7 7 7 8 9 8
8 6 5 6 7 6 5 4 5 4 4 5 4 12 13 13 5 5 5 5 6 7
8 7 7 7 6 5 3 3 2 4 5 5 4 11 11 12 4 5 6 6 6 4
9 9 9 7 6 4 4 3 3 2 6 6 5 10 10 9 5 5 6 6 8 3
9 9 9 8 7 2 3 3 2 5 5 11 6 8 12 9 3 6 5 7 9 16
9 9 9 8 5 4 4 5 4 5 5 5 7 5 12 12 5 3 4 5 5 5
Wind_Direction
115 122 111 105 101 98 80 46 28 22 20 30 8 29 36 40 20 12 8 22 19 22
112 108 105 96 89 78 65 76 26 25 11 32 28 34 33 29 37 10 2 9 4 12
112 116 109 96 101 88 78 72 30 21 23 22 34 40 38 37 21 24 7 8 360 2
128 112 91 99 98 85 69 67 57 34 35 28 46 40 35 40 32 14 18 17 0 15
126 123 118 112 93 96 93 57 40 37 69 58 47 39 40 40 29 20 13 28 15 17
118 120 116 114 104 93 82 71 46 37 62 57 57 47 47 43 29 23 16 19 14 22
128 123 124 116 102 92 75 64 56 42 65 67 64 57 46 46 37 28 19 21 16 25
120 119 124 108 99 87 78 64 45 54 46 75 59 60 55 42 39 33 22 22 13 21
132 122 124 111 103 91 81 62 51 47 58 42 69 61 58 54 43 33 22 14 9 13
124 130 126 117 99 90 74 76 69 35 44 38 14 63 62 61 47 35 10 356 5 5
132 135 119 109 107 100 88 90 70 37 36 47 16 72 66 63 39 34 13 7 339 0
146 138 132 129 125 106 91 63 56 44 46 45 12 73 70 67 43 29 16 2 355 55
148 142 140 139 127 101 97 98 64 55 35 39 20 69 69 69 48 48 25 13 6 11
146 144 136 130 118 115 103 86 56 57 17 31 23 51 77 71 63 57 45 27 5 343